EW2769 Weather Reports


time (UTC)temp
F
wind
direction
speed
knots
gust
knots
rain 1hr
in
rain 24hr
in
rain mn
in
humidity
%
barometer
mb
20260504173044 41 259 6.1 13.9 0.03 0.26 0.26 97 1003.5
20260504173003 44 285 1.7 7.8 0.05 0.18 0.18 100 1003.8
20260504171600 44 274 0.9 5.2 0.05 0.17 0.17 100 1003.8
20260504171539 40 250 4.3 7.0 0.04 0.25 0.25 96 1003.6
20260504081558 0 0.0 0.0 0.00 0.00 0.00 1004.3
20260504081500 31 297 0.0 0.0 0.00 0.00 0.00 28 1005.7
20260504050004 35 328 0.0 0.0 0.00 0.00 0.00 63 1004.9
20260504044525 0 0.0 0.0 0.00 0.00 0.00 1004.6
20260504044510 36 328 0.0 4.3 0.00 0.00 0.00 64 1004.9
20260504043011 0 0.0 0.0 0.00 0.00 0.00 1004.7
20260504043007 36 326 0.0 3.5 0.00 0.00 0.00 64 1005.1
20260504041506 0 0.0 0.0 0.00 0.00 0.00 1004.7
20260504041502 36 351 0.9 7.0 0.00 0.00 0.00 64 1005.0
20260504040057 0 0.0 0.0 0.00 0.00 0.00 1004.7
20260504040002 37 340 0.9 4.3 0.00 0.00 0.00 63 1005.0
20260504034653 0 0.0 0.0 0.00 0.00 0.00 1004.6
20260504034547 36 25 0.0 1.7 0.00 0.00 0.00 64 1005.0
20260504033048 0 0.0 0.0 0.00 0.00 0.00 1004.7
20260504033043 35 344 0.0 0.0 0.00 0.00 0.00 63 1005.0
20260504031545 0 0.0 0.0 0.00 0.00 0.00 1004.7
20260504031532 35 3 0.0 2.6 0.00 0.00 0.00 63 1005.0
20260504030039 0 0.0 0.0 0.00 0.00 0.00 1004.7
20260504030036 35 321 0.0 0.0 0.00 0.00 0.00 63 1005.0
20260504024540 0 0.0 0.0 0.00 0.00 0.00 1004.7
20260504024528 36 283 0.0 0.0 0.00 0.00 0.00 64 1005.1
20260504023024 37 283 0.0 0.0 0.00 0.00 0.00 64 1004.9
20260504023016 0 0.0 0.0 0.00 0.00 0.00 1004.6
20260504021521 38 305 0.0 0.0 0.00 0.00 0.00 64 1005.0
20260504021512 0 0.0 0.0 0.00 0.00 0.00 1004.6
20260504020027 38 287 0.0 0.0 0.00 0.00 0.00 63 1004.9
20260504020009 0 0.0 0.0 0.00 0.00 0.00 1004.6
20260504014516 39 341 0.0 8.7 0.00 0.00 0.00 63 1004.9
20260504014502 0 0.0 0.0 0.00 0.00 0.00 1004.6
20260504013123 0 0.0 0.0 0.00 0.00 0.00 1004.5
20260504013019 40 266 0.9 7.0 0.00 0.00 0.00 62 1004.8
20260504011557 40 307 4.3 13.0 0.00 0.00 0.00 61 1004.7
20260504011555 0 0.0 0.0 0.00 0.00 0.00 1004.4
20260504010101 41 299 5.2 12.2 0.00 0.00 0.00 60 1004.6
20260504010049 0 0.0 0.0 0.00 0.00 0.00 1004.3
20260504004545 0 0.0 0.0 0.00 0.00 0.00 1004.3
20260504003042 41 334 2.6 8.7 0.00 0.00 0.00 58 1004.4
20260504003025 0 0.0 0.0 0.00 0.00 0.00 1004.3
20260504001541 41 14 4.3 13.0 0.00 0.00 0.00 58 1004.1
20260504001528 0 0.0 0.0 0.00 0.00 0.00 1004.1
20260504000039 42 13 5.2 14.8 0.00 0.00 0.00 57 1004.0
20260504000016 0 0.0 0.0 0.00 0.00 0.00 1004.1
20260503234541 42 357 5.2 10.4 0.00 0.00 0.00 56 1003.9
20260503234512 0 0.0 0.0 0.00 0.00 0.00 1004.0
20260503233037 42 47 2.6 11.3 0.00 0.00 0.00 55 1003.8
20260503233012 0 0.0 0.0 0.00 0.00 0.00 1004.0
20260503231536 42 350 3.5 12.2 0.00 0.00 0.00 54 1003.8
20260503231503 0 0.0 0.0 0.00 0.00 0.00 1004.0
20260503230050 42 45 7.8 19.1 0.00 0.00 0.00 54 1003.6
20260503230006 39 302 7.0 13.0 0.00 0.00 0.00 59 1004.1
20260503224522 43 8 2.6 13.0 0.00 0.00 0.00 54 1003.7
20260503224501 39 295 6.1 11.3 0.00 0.00 0.00 60 1004.0
20260503223046 39 263 6.1 14.8 0.00 0.00 0.00 60 1003.9
20260503223021 43 1 6.1 13.9 0.00 0.00 0.00 54 1003.4
20260503221557 39 244 7.8 13.0 0.00 0.00 0.00 59 1003.8
20260503221522 43 337 5.2 12.2 0.00 0.00 0.00 54 1003.4
20260503220044 40 302 8.7 14.8 0.00 0.00 0.00 58 1003.8
20260503220029 43 261 7.0 18.2 0.00 0.00 0.00 53 1003.3
20260503214544 40 290 7.0 17.4 0.00 0.00 0.00 59 1003.8
20260503214529 44 43 4.3 10.4 0.00 0.00 0.00 52 1003.3
20260503213046 40 299 7.0 15.6 0.00 0.00 0.00 60 1003.9
20260503213029 44 348 7.0 19.1 0.00 0.00 0.00 51 1003.4
20260503211542 40 317 7.8 18.2 0.00 0.00 0.00 58 1003.9
20260503211518 45 5 7.0 18.2 0.00 0.00 0.00 48 1003.3
20260503210041 41 259 7.0 16.5 0.00 0.00 0.00 56 1003.8
20260503210019 45 348 2.6 13.9 0.00 0.00 0.00 47 1003.0
20260503204559 45 335 6.1 22.6 0.00 0.00 0.00 46 1003.1
20260503204546 41 278 7.0 15.6 0.00 0.00 0.00 56 1003.9
20260503203058 46 25 8.7 17.4 0.00 0.00 0.00 44 1003.2
20260503203034 42 323 4.3 14.8 0.00 0.00 0.00 53 1004.0
20260503201544 46 62 4.3 19.1 0.00 0.00 0.00 46 1003.2
20260503201526 42 316 6.1 12.2 0.00 0.00 0.00 51 1003.9
20260503200038 46 5 7.0 14.8 0.00 0.00 0.00 46 1003.3
20260503200027 43 281 5.2 12.2 0.00 0.00 0.00 51 1004.0
20260503194525 43 252 5.2 13.9 0.00 0.00 0.00 50 1004.1
20260503193038 43 308 8.7 16.5 0.00 0.00 0.00 51 1004.2
20260503193025 47 304 6.1 16.5 0.00 0.00 0.00 44 1003.4
20260503191551 43 306 8.7 18.2 0.00 0.00 0.00 50 1004.4
20260503191523 48 7 9.6 16.5 0.00 0.00 0.00 43 1003.4
20260503190031 47 320 7.0 16.5 0.00 0.00 0.00 44 1003.5
20260503190027 44 240 7.0 13.9 0.00 0.00 0.00 49 1004.2
20260503184522 44 306 7.0 13.0 0.00 0.00 0.00 48 1004.2
20260503183020 47 305 11.3 16.5 0.00 0.00 0.00 45 1003.4
20260503183007 44 306 7.0 14.8 0.00 0.00 0.00 47 1004.0
20260503181537 47 338 6.1 15.6 0.00 0.00 0.00 48 1003.4
20260503181507 45 254 6.1 15.6 0.00 0.00 0.00 46 1004.1
20260503180031 46 29 1.7 12.2 0.00 0.00 0.00 50 1003.7
20260503180006 44 279 6.1 15.6 0.00 0.00 0.00 47 1004.3
20260503174623 46 48 2.6 16.5 0.00 0.00 0.00 51 1003.7
20260503174503 44 315 7.8 13.0 0.00 0.00 0.00 49 1004.3